BB3

导读

BB3卫星是美国于北京时间2023年9月2日08:00发射的卫星,当天美国太空探索技术公司SpaceX利用猎鹰9火箭,从加利福尼亚州范登堡空军基地执行了发射任务,本次任务共将13枚军用卫星送入太空。BB3卫星入轨后,将配合美国太空发展局的空间态势感知或通信等相关部署,服务美军太空领域相关军事应用。

Basic Information
目录编号:
57760
目录名称:
BB3
国际标识:
2023-133D
轨道中心:
EARTH
卫星名称:
BB3
卫星全名:
--
卫星状态:
在轨 (已飞行1099 天)
发射日期:
2023-09-02 UTC
国别 :
美国 (US)
星等 :
--
Orbit Information
数据来源 国际轨道数据 AOE轨道数据
星历时间 2026-09-05T02:03:31+0800
10小时前
查看轨道信息
2026-09-04T21:00:00+0800
15小时前
查看轨道信息
半长轴 6986.941km 6986.945km
偏心率 0.0009373 0.0009265
轨道倾角 80.994° 80.993°
近地点辐角 76.470° 75.459°
升交点赤经 261.525° 261.762°
平近点角 283.756° 237.444°
近地点 602.255km 602.334km
远地点 615.353km 615.282km
周期 96.870分钟 96.870分钟
每日圈数 14.865248 14.865236
Detailed Information
使用方式:
暂无
2D Orbit Map
3D Orbit Map
Orbit Altitude Analysis Chart
Orbit Inclination Analysis Chart
Orbit Comprehensive Analysis Chart
View Comprehensive Chart
Conjunction Data List
Event ID Objects TCA Miss Dist (km) Collision Risk Probability Collision Risk Index (CRI) Action
CDM_260905-091202-654505-776025
BB3 (57760)
2026-09-05T
09:12:20+0000
2.598 km
极远距离
1.57408E-6 低风险 0.39